Powrót do katalogu

H-2A R/B

AktywnySSO
NORAD 27601·ROCKET BODY·🇯🇵 Japan

Wystrzelony Dec 14, 2002 z Tanegashima Space Center

Loading…

Następne Przeloty (najbliższe 24 godziny)

TLE

ŚwieżeSource: Space-Track

Epoka: Sep 14, 2026, 02:45 UTC

1 27601U 02056E   26257.11474683  .00000194  00000-0  82889-4 0  9998
2 27601  98.3409 210.5849 0069440 321.2314  48.6226 14.33861769241114

Śledź H-2A R/B w czasie rzeczywistym z AllMySat

Download on the App Store